Location: Unspecified
(0.0000°N, 0.0000°E)
Time: 17:09:03
(UTC+00:00)

Hubble Space Telescope - Pass Details

Date: 13 December 2018
Orbit: 537 x 540 km, 28.5° (Epoch: 11 December)

Event Time Altitude Azimuth Distance (km) Brightness Sun altitude
Rises 18:45:09 0° 237° (WSW) 2,674 6.3 -11.7°
Reaches altitude 10° 18:47:25 10° 235° (SW) 1,783 4.9 -12.2°
Maximum altitude 18:51:31 75° 150° (SSE) 554 0.8 -13.1°
Enters shadow 18:54:03 23° 67° (ENE) 1,174 1.9 -13.7°
